Total_Precipitation_Accumulation
2.59 2.89 2.88 3.06 2.69 2.64 2.77 2.72 2.50 2.38 2.16 1.98 1.89 1.83 1.92 1.97 2.03 2.27 2.33 2.28 2.52 3.05 3.61 3.92 3.98 3.90 3.82 3.62 3.43 3.26 2.97 2.80 2.64 2.39 2.11 1.87 1.75 1.66 1.66 1.70 1.71 1.64 1.66
3.01 3.33 3.45 3.48 3.25 3.28 3.47 3.53 3.27 3.01 2.73 2.65 2.41 2.35 2.30 2.33 2.49 2.54 2.49 2.41 2.36 2.56 3.20 3.71 4.02 4.18 4.12 3.85 3.54 3.37 3.22 3.04 2.87 2.63 2.40 2.20 2.06 1.92 1.80 1.77 1.78 1.72 1.61
3.57 3.66 3.98 3.94 3.73 3.72 3.80 3.79 3.98 3.90 3.36 3.02 2.91 2.88 2.79 2.68 2.86 2.97 3.05 2.89 2.59 2.54 2.79 3.30 3.64 3.81 3.93 3.99 3.83 3.63 3.55 3.23 2.94 2.72 2.55 2.42 2.34 2.24 2.08 1.92 1.88 1.89 1.75
3.91 3.94 3.97 4.06 4.00 3.97 4.29 4.46 4.38 4.28 4.02 3.62 3.49 3.27 3.10 3.11 2.92 2.93 3.04 2.92 2.87 2.55 2.43 2.58 2.93 3.09 3.46 3.90 4.10 4.06 3.90 3.62 3.26 2.99 2.86 2.74 2.56 2.39 2.23 2.08 1.99 1.97 1.88
4.41 4.47 4.43 4.59 4.44 4.50 4.50 4.35 4.75 4.70 4.55 4.14 3.68 3.46 3.17 3.13 2.98 2.67 2.71 2.72 2.71 2.58 2.47 2.36 2.63 2.86 3.16 3.65 4.07 4.27 4.20 4.01 3.74 3.45 3.29 3.15 2.95 2.66 2.40 2.25 2.18 2.08 2.05
5.20 5.21 5.18 5.21 5.08 4.94 4.84 4.80 4.89 4.68 4.52 4.24 3.69 3.42 3.09 2.73 2.64 2.63 2.38 2.51 2.47 2.26 2.36 2.43 2.54 2.47 2.89 3.23 3.67 4.05 4.12 4.17 4.03 3.68 3.41 3.36 3.25 3.01 2.75 2.57 2.44 2.31 2.25
5.71 5.57 5.41 5.54 5.41 5.14 4.90 4.87 4.85 4.72 4.35 4.32 4.34 3.85 3.14 2.70 2.46 2.27 2.29 2.37 2.20 2.19 2.47 2.50 2.42 2.34 2.33 2.65 2.96 3.34 3.73 4.01 4.21 4.12 3.89 3.68 3.36 3.05 2.89 2.82 2.76 2.60 2.42
6.03 5.84 5.87 5.69 5.52 5.39 5.11 4.90 4.85 4.73 4.37 4.42 4.44 4.39 3.59 3.02 2.36 1.84 1.96 2.02 2.00 2.08 2.18 2.15 2.13 2.20 2.21 2.31 2.29 2.75 3.27 3.59 4.01 4.20 4.14 3.79 3.48 3.16 3.06 3.03 3.00 2.90 2.78
6.27 6.17 6.16 5.89 5.67 5.42 5.08 4.80 4.69 4.60 4.46 4.45 4.31 4.41 3.82 3.10 2.57 2.08 1.81 1.71 1.80 1.95 1.96 2.07 2.02 2.05 2.12 2.29 2.36 2.38 2.57 2.65 3.13 3.65 3.81 3.80 3.66 3.38 3.21 3.19 3.18 3.12 3.09
5.61 5.57 5.61 5.49 5.32 5.00 4.76 4.44 4.33 4.28 4.42 4.24 4.18 3.95 3.64 3.27 3.04 2.62 2.18 1.91 1.86 1.86 1.89 1.92 1.94 2.04 2.10 2.22 2.35 2.29 2.22 2.13 2.33 2.73 3.06 3.16 3.18 3.10 3.07 3.08 3.11 3.18 3.19
4.86 4.68 4.73 4.65 4.49 4.28 4.11 4.05 4.09 4.00 3.93 3.77 3.68 3.69 3.70 3.60 3.22 2.87 2.50 2.20 2.09 1.96 1.94 1.95 2.09 2.13 2.10 2.13 2.17 2.12 2.10 1.99 1.96 2.18 2.41 2.58 2.77 2.89 2.94 2.93 2.90 3.00 3.14
4.31 3.96 3.85 3.78 3.61 3.44 3.44 3.47 3.56 3.55 3.59 3.58 3.49 3.37 3.34 3.33 3.11 2.99 2.66 2.35 2.31 2.11 2.02 1.95 1.92 2.01 2.07 2.09 2.02 2.15 1.87 1.77 1.70 1.75 1.93 2.13 2.38 2.59 2.70 2.80 2.92 3.00 3.10
3.68 3.37 3.18 3.13 3.01 2.94 2.94 3.11 3.23 3.18 3.16 3.20 3.18 3.09 3.03 2.96 2.90 2.90 2.96 2.69 2.36 2.06 2.00 1.89 1.76 1.79 1.80 1.96 2.05 2.07 1.71 1.55 1.54 1.60 1.71 1.76 1.95 2.18 2.35 2.46 2.62 2.79 2.81
3.04 2.85 2.74 2.68 2.59 2.51 2.46 2.67 2.80 2.87 2.87 2.92 2.87 2.99 2.94 2.80 2.80 2.78 2.82 2.91 2.75 2.39 2.15 1.95 1.82 1.81 1.83 1.90 2.04 2.02 1.73 1.74 1.59 1.62 1.68 1.63 1.64 1.74 1.82 1.90 2.01 2.14 2.26
2.49 2.35 2.30 2.32 2.29 2.26 2.30 2.48 2.54 2.48 2.55 2.58 2.64 2.76 2.74 2.69 2.74 2.71 2.81 2.96 3.04 2.83 2.46 2.13 2.02 1.90 1.96 2.00 2.19 1.83 1.84 2.01 1.79 1.66 1.61 1.56 1.52 1.46 1.43 1.46 1.48 1.52 1.57
2.19 2.12 2.08 2.09 2.12 2.09 2.10 2.22 2.32 2.36 2.34 2.31 2.41 2.58 2.62 2.58 2.72 2.81 2.90 2.94 2.97 2.97 2.72 2.27 2.15 2.02 2.01 1.92 2.25 1.94 1.91 2.01 1.74 1.54 1.42 1.34 1.28 1.23 1.24 1.28 1.30 1.35 1.37
2.35 2.18 2.07 2.13 2.14 2.07 2.04 2.05 1.97 2.05 2.14 2.19 2.22 2.33 2.44 2.51 2.65 2.69 2.76 2.76 2.83 2.88 2.76 2.37 2.24 2.22 2.21 2.15 2.17 2.03 1.92 1.86 1.70 1.58 1.37 1.25 1.20 1.16 1.14 1.19 1.22 1.23 1.27
2.08 2.04 2.03 2.07 2.06 1.98 1.97 1.89 1.76 1.82 1.91 2.00 2.06 2.13 2.20 2.27 2.37 2.33 2.42 2.45 2.49 2.61 2.61 2.52 2.46 2.36 2.33 2.28 2.19 2.00 1.71 1.51 1.49 1.49 1.33 1.25 1.21 1.18 1.20 1.23 1.24 1.24 1.21
2.00 2.02 2.05 2.05 2.05 2.00 1.98 1.92 1.86 1.80 1.71 1.72 1.82 1.86 1.92 2.01 1.98 1.92 1.96 1.95 2.05 2.17 2.41 2.41 2.33 2.41 2.35 2.33 2.42 2.11 1.84 1.80 1.38 1.32 1.26 1.24 1.23 1.18 1.16 1.16 1.14 1.12 1.11
1.83 1.93 1.90 1.86 1.84 1.77 1.68 1.71 1.77 1.76 1.67 1.63 1.62 1.62 1.60 1.56 1.55 1.60 1.63 1.68 1.82 2.09 2.29 2.28 2.13 2.13 2.17 2.14 2.33 2.20 2.09 1.97 1.68 1.27 1.23 1.13 1.15 1.14 1.10 1.03 0.99 0.96 0.97
1.55 1.67 1.66 1.65 1.61 1.51 1.40 1.44 1.52 1.53 1.57 1.54 1.50 1.46 1.38 1.35 1.38 1.37 1.30 1.45 1.72 2.00 2.11 2.15 2.09 2.00 1.96 2.02 2.05 1.93 1.93 1.96 1.87 1.54 1.46 1.20 1.09 1.11 1.12 1.09 1.05 0.95 0.86
1.54 1.55 1.54 1.48 1.38 1.20 1.23 1.25 1.23 1.29 1.39 1.46 1.45 1.35 1.25 1.21 1.20 1.18 1.18 1.27 1.45 1.63 1.79 1.91 1.91 1.87 1.84 1.87 1.98 1.98 1.98 2.02 1.96 1.71 1.69 1.52 1.29 1.37 1.30 1.16 1.07 0.97 0.91
1.55 1.46 1.38 1.29 1.19 1.12 1.10 1.08 1.12 1.19 1.29 1.37 1.40 1.41 1.22 1.04 1.15 1.16 1.18 1.22 1.25 1.33 1.47 1.68 1.80 1.74 1.78 1.89 2.11 2.09 2.10 2.10 1.99 1.81 1.90 1.82 1.64 1.58 1.31 1.13 1.14 1.01 0.92
1.51 1.43 1.32 1.22 1.15 1.04 1.01 1.00 1.03 1.07 1.24 1.28 1.28 1.31 1.33 1.28 1.21 1.23 1.20 1.20 1.19 1.23 1.32 1.42 1.58 1.63 1.63 1.78 2.01 2.03 2.07 2.06 1.94 1.82 1.93 1.97 1.68 1.59 1.28 1.32 1.22 1.02 0.92
1.43 1.34 1.25 1.24 1.21 1.08 1.00 0.94 1.00 1.08 1.21 1.20 1.12 1.12 1.11 1.11 1.13 1.21 1.27 1.35 1.33 1.29 1.14 1.20 1.27 1.38 1.51 1.60 1.69 1.79 1.94 2.11 2.00 1.81 1.82 1.95 1.78 1.64 1.47 1.48 1.29 1.10 1.02
1.36 1.24 1.18 1.20 1.21 1.16 1.01 0.89 0.97 1.01 1.05 1.07 1.09 1.05 0.99 0.93 0.93 0.96 1.03 1.25 1.39 1.30 1.22 1.22 1.33 1.47 1.54 1.60 1.59 1.66 1.85 2.02 2.00 2.00 1.80 1.89 1.86 1.82 1.74 1.48 1.35 1.28 1.24